Theta_e
285 283 283 282 282 281 281 281 283 286 286 286 287 286 287 287 287 287 287 287 287 288
284 283 282 282 282 281 281 283 284 285 285 285 286 286 286 286 286 286 286 286 287 287
283 283 283 282 281 281 281 283 283 283 283 284 285 286 286 285 286 285 286 286 286 287
283 283 282 282 281 281 281 282 282 282 282 283 284 286 285 285 285 285 285 286 286 286
283 283 282 281 280 280 280 281 281 282 284 285 285 285 285 284 285 285 285 285 285 285
282 280 274 272 272 276 274 275 278 283 283 284 284 284 285 285 285 285 285 286 286 286
280 279 275 270 279 280 276 274 278 278 278 279 282 284 284 285 285 283 283 285 287 287
276 272 269 267 268 274 283 273 273 274 274 276 282 284 286 285 284 282 282 284 285 286
271 268 269 264 264 268 272 270 269 273 272 273 282 285 288 286 280 280 282 282 284 285
270 270 268 264 263 267 268 267 268 269 269 269 274 284 287 285 280 279 278 279 281 283
270 271 265 263 265 264 266 267 268 268 266 266 272 282 286 284 274 273 274 277 281 281
272 273 267 267 268 266 267 270 268 269 267 268 269 280 284 281 273 276 274 275 278 280
274 274 270 270 267 265 266 272 274 273 268 268 270 278 283 281 277 272 274 272 274 281
274 275 272 270 269 269 269 271 268 271 270 268 270 270 282 282 274 271 271 272 275 278
Wind_Speed
5 3 2 2 2 3 2 3 5 5 6 7 7 7 7 6 6 8 7 9 8 7
5 5 4 2 1 2 3 4 4 5 6 6 7 8 8 6 7 7 8 9 9 8
6 5 3 2 2 2 4 4 5 5 5 6 7 7 8 7 8 9 8 7 10 10
5 5 4 3 1 2 3 4 5 5 5 6 7 7 7 8 9 10 10 10 10 12
5 5 4 3 0 2 3 4 5 5 6 6 7 7 8 9 9 9 10 10 10 12
6 5 4 3 3 2 2 4 4 4 5 6 7 7 8 9 10 9 10 11 10 11
6 6 5 4 3 3 3 3 4 4 3 5 6 7 9 7 7 10 10 10 8 7
5 4 4 4 3 5 3 3 5 4 4 5 5 5 10 5 7 8 8 8 7 7
6 4 6 4 4 5 3 3 4 6 3 4 5 13 15 10 4 6 7 8 8 8
6 6 7 4 3 5 4 1 3 6 2 3 5 12 12 11 3 4 5 5 7 9
7 7 5 4 5 4 3 3 3 4 4 3 4 10 11 10 3 4 5 6 7 8
9 8 6 6 6 5 3 2 2 3 3 2 5 8 9 6 4 4 6 6 7 9
10 9 9 7 6 4 3 4 3 3 4 4 5 8 7 5 1 3 4 5 6 11
9 10 8 6 4 3 3 2 3 4 4 4 4 5 7 6 1 2 2 3 4 5
Wind_Direction
155 158 189 226 264 301 309 302 277 309 305 306 306 303 297 292 287 282 280 278 271 274
158 164 203 237 272 280 302 281 306 304 302 302 305 297 294 289 286 281 276 270 273 271
168 176 181 192 243 290 289 285 294 296 297 304 300 298 295 290 282 279 278 277 273 269
172 173 178 195 219 293 296 303 301 299 299 290 297 297 292 287 284 280 279 275 271 270
167 170 189 201 166 285 296 301 301 296 287 301 304 298 295 291 288 283 284 283 275 274
174 174 191 209 234 258 264 281 292 289 302 313 307 303 299 296 295 296 298 291 283 282
180 184 195 196 211 228 240 261 271 273 286 293 302 299 300 293 303 321 316 309 299 288
176 164 191 201 218 254 232 270 275 272 300 300 298 308 318 314 331 321 311 308 311 300
173 173 208 209 222 256 235 296 309 295 306 328 322 320 340 346 329 324 330 327 326 324
180 194 213 191 227 239 243 173 279 289 304 313 309 319 348 357 332 319 323 327 328 332
185 206 206 181 223 229 212 214 232 266 296 316 295 319 341 356 332 327 320 322 328 328
189 200 196 207 220 236 188 185 232 237 269 288 292 316 333 8 339 330 326 327 331 334
187 198 198 202 198 227 225 195 176 254 224 256 277 312 336 5 320 326 326 314 320 349
189 201 198 183 179 193 215 224 212 220 247 242 241 290 318 341 209 261 307 320 331 339